Regional Weather Roundup
Issued by NWS

Home | Current Version | Previous Version | Text Only | Print | Product List | Glossary On
Versions: 1 2 3 4 5 6 7 8 9 10 11 12 13 14 15 16 17 18 19 20 21 22 23 24 25 26 27 28 29 30 31 32 33 34 35 36 37 38 39 40 41 42 43 44 45 46 47 48 49 50
000
ASUS43 KLMK 270502
RWRKY
KENTUCKY REGIONAL WEATHER ROUNDUP
NATIONAL WEATHER SERVICE LOUISVILLE KY
1200 AM EST SAT DEC 27 2014

NOTE "FAIR" INDICATES FEW OR NO CLOUDS BELOW 12,000 FEET
WITH NO SIGNIFICANT WEATHER AND/OR OBSTRUCTIONS TO VISIBILITY.

KYZ001>023-026-027-061>063-070>075-270600-
WESTERN AND SOUTH CENTRAL KENTUCKY

CITY           SKY/WX    TMP DP  RH WIND       PRES   REMARKS
PADUCAH        CLOUDY    49  39  68 S5        30.16F
HENDERSON      CLOUDY    48  36  61 S12       30.17R
OWENSBORO      CLOUDY    46  39  76 S9        30.18S
HOPKINSVILLE   PTCLDY    44  38  78 SE3       30.20R
BOWLING GREEN  CLOUDY    49  37  63 SW3       30.21R
GLASGOW        NOT AVBL
$$

KYZ024-025-028>034-038-045-046-053-270600-
NORTH CENTRAL KENTUCKY

CITY           SKY/WX    TMP DP  RH WIND       PRES   REMARKS
LOUISVILLE/SDF CLOUDY    50  34  54 CALM      30.19R
LOUISVILLE/LOU MOCLDY    49  35  58 S5        30.19R
FORT KNOX      CLOUDY    47  35  63 S9        30.18R
$$

KYZ035>037-039>044-047>052-055>060-089>105-270600-
NORTHEAST KENTUCKY

CITY           SKY/WX    TMP DP  RH WIND       PRES   REMARKS
LEXINGTON      CLOUDY    46  33  60 S7        30.20S
COVINGTON      MOCLDY    42  31  64 S7        30.17F
FRANKFORT      MOCLDY    48  30  49 SW8       30.18S
$$

KYZ054-064>069-076>088-106>120-270600-
SOUTHEAST KENTUCKY

CITY           SKY/WX    TMP DP  RH WIND       PRES   REMARKS
JACKSON        CLOUDY    47  25  42 SW5       30.21S
LONDON         CLOUDY    45  29  53 CALM      30.23F
SOMERSET       NOT AVBL
MIDDLESBORO    CLOUDY    40  35  82 CALM      30.25F
MONTICELLO     MOCLDY    42  35  76 CALM      30.24F
$$



USA.gov is the U.S. government's official web portal to all federal, state and local government web resources and services.